Погода в Покровском

Россия / Ставропольский край     45°58′39″N   41°35′25″E
темп.,
°C
ветер,
м/с
пор.,
м/с
влажн.,
%
обл.,
%
осадки,
мм/ч
давл.,
гПа
погр.,
м
26 июня, вс
вс2600:00+17всв357741 0.0 101078
03:00+18ссв2275100 0.1 101037
06:00+19ссв3865100 0.0 1010191
09:00+23св61056100 0.0 1009523
12:00+26св6952100 0.0 10101155
15:00+26св3647100 0.1 1008295
18:00+25юз2456100 0.2 100784
21:00+18юз5996100 1.4 1011296
27 июня, пн
пн2700:00+18ссз479798 5.0 1010228
03:00+19св51378100 5.8 1010501
06:00+19всв5137599 0.1 1012500
09:00+18вюв51089100 1.7 1013547
12:00+25всв6954100 0.5 10131310
15:00+30всв9103782 0.5 10122153
18:00+27всв81240100 0.0 1011876
21:00+23св6135494 0.2 1013350
28 июня, вт
вт2800:00+21св51352100 0.0 1012320
03:00+19всв41255100 0.0 1013297
06:00+17всв4968100 0.7 1013183
09:00+17в51178100 2.6 1014337
12:00+15св61190100 3.2 1015359
15:00+17св3676100 4.4 1015281
18:00+18в2675100 0.1 1015237
21:00+17в2273100 0.1 101514
29 июня, ср
ср2900:00+18всв3467100 0.0 101472
03:00+18св487192 0.0 1014152
06:00+18св376663 0.0 1014187
09:00+25всв795580 0.0 1014857
12:00+28всв894014 0.0 10141347
15:00+29всв883718 0.0 10141822
18:00+28всв78409 0.0 10141575
21:00+22всв6134581 0.0 1015309
30 июня, чт
чт3000:00+20всв6144099 0.0 1015362
03:00+17всв5134188 0.0 1016311
06:00+17всв512444 0.0 1016302
09:00+24всв68280 0.0 1016926
12:00+27всв66220 0.0 10161809
15:00+28всв66210 0.0 10152051
18:00+27всв56255 0.0 10151894
21:00+20всв453523 0.0 101663